Temperature
19 19 18 18 18 17 17 17 17 16 16 16 16 16 16 16 16 16 16 16 16 16 16 16 15 15 15 15 15 15 15 15 15 15 15 15 14 14 14 14 14 14 14
19 19 18 18 18 18 17 17 17 17 16 16 16 16 16 16 16 16 16 16 16 15 15 15 15 15 15 15 15 15 15 15 15 15 15 16 15 14 14 14 14 14 14
20 20 19 19 18 18 18 17 17 17 17 16 16 16 16 16 16 16 16 16 16 15 15 15 15 15 15 15 15 15 15 15 15 15 15 16 17 15 14 14 14 14 14
20 20 19 19 19 18 18 18 17 17 17 17 16 16 16 16 16 16 16 16 16 15 15 15 15 15 15 15 15 15 15 15 15 15 15 15 15 15 15 14 14 14 13
20 20 19 19 19 18 18 18 17 17 17 17 17 17 16 16 16 16 16 16 16 16 15 15 15 15 15 15 15 15 15 15 15 14 14 14 14 15 15 15 14 14 13
20 20 19 19 19 19 18 18 18 18 17 17 17 17 17 16 16 16 16 16 16 16 15 15 15 15 15 15 15 15 15 15 15 14 14 14 14 14 15 15 15 14 13
20 20 19 19 19 19 19 18 18 18 18 17 17 17 17 17 16 16 16 16 16 16 16 16 15 15 15 15 15 15 15 14 14 14 14 14 14 14 14 14 14 14 14
20 20 19 19 19 19 19 19 18 18 18 18 17 17 17 17 16 16 16 16 16 16 16 16 15 15 15 15 15 15 14 14 14 14 14 14 14 14 13 13 14 14 14
20 19 19 19 19 19 19 19 19 18 18 18 17 17 17 17 17 16 16 16 16 16 16 16 15 15 15 15 15 14 14 14 14 14 14 14 13 13 13 13 13 13 14
20 19 19 19 19 19 19 19 19 18 18 18 17 17 17 17 17 16 16 16 16 16 16 15 15 15 15 15 15 14 14 14 14 14 14 13 13 13 13 13 13 13 13
20 19 19 19 19 19 19 19 19 19 18 18 18 17 17 17 17 17 16 16 16 16 16 15 15 15 15 15 15 14 14 14 14 13 13 13 13 13 13 13 12 12 12
19 19 19 19 19 19 19 19 19 18 18 18 17 17 17 17 17 17 16 16 16 16 16 15 15 15 15 15 14 14 14 13 13 13 13 13 13 13 12 12 12 12 12
19 19 19 19 19 19 19 19 18 18 18 18 18 17 17 17 17 17 16 16 16 16 15 15 15 15 15 14 14 14 14 13 13 13 13 13 13 12 12 12 12 12 12
19 19 18 18 19 19 19 19 18 18 18 18 18 17 17 17 17 16 16 16 16 16 15 15 15 15 15 14 14 14 14 13 13 13 13 13 12 12 12 12 12 11 11
19 18 18 18 18 18 18 18 18 18 18 18 18 17 17 17 17 16 16 16 16 15 15 15 15 15 15 14 14 14 14 13 13 13 13 13 13 12 12 12 11 11 11
18 18 18 18 18 18 18 18 18 18 18 18 18 17 17 17 16 16 16 16 16 15 15 15 15 15 15 14 14 14 13 13 13 12 12 12 12 12 12 12 12 11 11
18 18 18 18 18 18 18 18 18 18 18 17 17 17 17 17 16 16 16 16 15 15 15 15 14 14 14 14 14 14 13 13 12 12 12 12 12 12 12 11 11 11 11
18 18 18 18 18 18 18 18 17 17 17 17 17 17 17 16 16 16 16 15 15 15 15 14 14 14 14 14 14 13 13 12 12 12 12 12 11 11 11 11 11 11 11
18 18 18 18 18 18 18 17 17 17 17 17 17 17 16 16 16 16 15 15 15 15 14 14 14 14 13 13 13 13 13 12 12 12 12 11 11 11 11 11 10 10 10
18 18 18 17 17 17 17 17 17 17 17 17 16 16 16 16 16 15 15 15 15 14 14 14 14 13 13 13 13 13 12 12 12 12 11 11 11 11 11 10 10 10 10
17 17 17 17 17 17 17 17 17 17 16 16 16 16 16 15 15 15 15 14 14 14 14 13 13 13 13 13 13 12 12 12 11 11 11 11 11 11 11 10 10 9 9
17 17 17 17 17 17 17 16 16 16 16 16 16 15 15 15 15 15 14 14 14 14 13 13 13 13 12 12 12 12 12 11 11 11 11 11 11 10 10 10 10 9 9
16 16 16 16 16 16 16 16 16 16 16 16 15 15 15 15 15 14 14 14 13 13 13 12 12 12 12 12 12 12 11 11 11 10 10 10 10 10 9 9 9 9 8
16 16 16 16 16 16 16 16 16 16 15 15 15 15 14 14 14 14 14 13 13 13 12 12 12 11 11 11 11 11 11 10 10 10 10 9 9 9 9 8 8 8 7
15 15 15 15 15 15 15 15 15 15 15 15 14 14 14 13 13 13 13 13 12 12 12 11 11 11 11 11 11 10 10 10 10 9 9 9 8 8 8 8 7 7 7
15 15 15 15 15 15 15 15 15 14 14 14 14 14 13 13 13 12 12 12 12 12 11 11 11 10 10 10 10 10 10 9 9 9 8 8 8 7 7 7 7 6 6
Wind_Speed
10 9 9 9 8 8 8 8 7 7 5 4 3 3 2 2 2 2 3 2 2 3 3 2 3 2 3 3 3 4 4 3 2 2 3 3 3 3 3 3 3 5 6
11 10 10 10 10 9 8 8 8 7 6 4 4 3 2 2 2 2 2 2 2 2 2 2 2 2 2 3 3 2 2 2 0 1 1 1 3 2 2 2 3 4 4
12 12 12 11 10 10 10 8 8 8 7 7 4 4 3 3 3 2 2 1 1 2 1 2 2 2 2 2 2 2 1 1 1 2 2 2 1 1 2 2 2 3 3
12 11 12 12 12 11 10 10 9 9 8 8 7 6 4 3 3 2 2 2 2 2 2 2 2 2 2 2 2 1 1 1 1 1 2 3 2 2 0 1 2 2 3
11 12 12 12 11 10 9 9 9 9 9 8 8 7 5 3 3 3 3 3 2 2 2 2 2 2 2 2 1 1 0 0 1 1 0 1 1 3 2 1 0 1 1
11 11 11 10 9 9 9 9 10 9 9 9 9 8 6 5 4 4 3 3 2 2 2 3 2 2 2 2 2 1 1 0 0 1 1 1 2 2 2 2 1 1 1
10 10 10 10 10 10 10 10 10 10 10 10 9 8 7 7 6 5 4 3 3 3 3 3 3 2 2 2 2 2 1 1 0 1 1 1 2 2 2 2 2 2 1
10 10 10 9 9 10 10 10 11 10 10 10 9 8 8 6 5 5 4 4 3 3 3 3 3 3 3 3 2 2 1 1 1 0 0 1 1 2 2 2 3 2 1
9 10 10 10 9 10 10 10 10 10 10 10 9 8 8 7 6 5 5 4 3 3 3 3 3 3 3 3 3 2 2 1 1 1 1 1 0 1 1 2 3 3 3
8 9 9 9 9 8 9 9 10 10 9 9 8 7 7 7 6 5 5 5 5 4 4 4 4 4 4 4 3 2 1 2 1 0 0 0 0 0 1 1 2 3 3
7 8 8 8 8 8 8 8 9 8 8 8 8 8 7 6 6 5 5 5 4 5 5 4 4 4 4 4 4 3 3 2 2 2 1 1 1 1 1 1 1 2 2
7 7 8 8 8 8 8 8 9 9 8 8 8 7 7 7 6 6 6 6 5 5 4 4 4 4 4 4 4 4 3 3 2 2 2 2 1 2 2 1 2 2 2
7 7 7 8 8 8 8 8 8 8 7 7 7 7 7 7 7 6 6 5 5 5 5 4 4 4 4 4 4 4 3 3 2 2 2 2 2 2 2 2 2 2 2
6 7 7 7 7 7 7 7 7 7 7 7 7 7 7 7 7 6 5 5 5 5 5 5 4 4 4 4 4 4 4 3 2 2 2 2 2 2 2 2 2 2 2
6 6 7 7 7 7 7 6 6 7 7 7 7 7 7 6 6 5 5 5 5 4 4 4 4 3 3 3 3 4 4 3 3 2 2 1 1 3 2 2 2 2 2
6 6 6 7 7 8 7 7 7 7 7 7 7 6 6 6 6 6 5 5 5 4 4 4 4 3 2 2 1 3 4 3 3 3 2 2 2 2 2 2 3 4 4
6 6 7 7 7 8 8 7 7 7 7 7 6 6 6 6 6 6 5 5 5 5 4 4 4 4 3 4 4 5 4 4 3 3 3 2 2 2 2 4 5 4 4
6 6 6 7 7 7 7 7 7 7 7 7 6 6 6 6 5 5 5 5 5 5 4 4 4 4 3 4 5 5 5 4 4 4 4 3 3 2 3 3 3 3 3
5 6 6 7 7 7 7 7 7 7 7 6 6 6 6 6 6 6 5 5 4 4 4 4 4 4 4 4 5 5 4 4 5 4 4 4 4 1 2 4 4 4 3
4 5 6 6 6 7 7 7 6 6 6 6 6 6 6 6 6 6 5 4 4 4 4 3 4 4 4 4 4 6 4 5 4 4 4 2 3 1 2 4 5 5 5
4 5 6 6 6 6 7 6 6 5 5 5 5 5 6 6 5 5 4 4 4 4 3 3 3 3 3 3 4 5 4 4 4 4 3 2 2 3 4 5 5 5 6
5 6 6 6 5 6 6 6 5 4 4 4 5 5 5 5 4 5 4 4 4 4 3 3 2 2 2 2 3 4 5 5 5 4 3 2 2 3 4 4 3 4 5
5 5 6 6 5 5 5 5 4 4 4 5 5 4 5 5 4 5 4 4 4 3 3 2 3 2 2 2 3 4 5 5 4 3 1 1 2 3 3 2 3 4 4
5 5 6 6 5 5 5 4 4 5 5 5 5 4 5 4 4 3 3 3 3 3 3 3 3 2 2 2 2 2 3 4 3 2 2 3 3 3 2 2 3 3 3
4 5 5 5 5 5 5 4 4 5 5 4 4 4 4 4 3 3 2 3 2 2 3 3 3 3 3 1 1 2 2 2 2 2 2 2 2 2 2 2 2 3 3
4 4 5 5 5 5 4 4 4 5 5 4 4 3 3 3 3 3 2 3 1 2 1 1 2 2 0 1 1 1 1 1 2 3 3 3 3 3 3 3 3 3 4
Wind_Direction
194 191 190 191 191 191 191 183 181 175 169 164 165 155 141 125 99 77 74 74 68 75 86 93 85 91 103 107 115 117 116 109 107 127 117 110 90 76 68 46 42 51 45
198 194 195 194 198 196 198 196 191 184 179 175 171 171 158 148 116 114 95 83 82 85 105 111 109 108 112 118 115 128 127 112 29 286 234 169 147 108 72 54 34 37 47
203 197 196 197 198 200 199 199 196 188 185 179 173 168 163 175 168 157 129 93 100 106 109 123 120 123 141 129 126 142 141 137 116 360 330 323 11 81 110 62 52 39 31
207 201 198 200 201 201 199 199 195 192 186 183 187 187 193 191 184 166 147 144 142 140 148 150 151 144 129 130 145 129 145 212 160 96 4 356 4 303 182 134 68 39 30
205 202 201 203 202 198 197 199 193 191 189 190 191 201 203 195 179 168 160 162 145 155 162 165 164 156 150 148 131 126 151 229 307 314 357 26 331 297 310 311 338 64 48
198 200 198 199 197 192 194 195 192 191 191 195 198 204 203 199 190 190 181 178 161 165 165 169 170 169 164 161 157 153 149 25 20 314 311 304 307 318 314 299 298 334 38
192 191 189 191 191 190 192 192 193 194 195 198 202 204 205 203 202 201 194 196 182 178 173 174 177 171 174 177 179 182 182 172 191 291 320 325 325 327 314 308 317 318 322
189 190 189 191 190 190 191 193 195 198 196 200 202 202 200 205 204 204 199 201 197 184 172 177 176 174 178 181 178 196 189 193 192 210 301 289 323 322 316 316 310 298 291
187 190 190 191 192 192 193 196 195 196 196 199 200 200 200 202 201 200 200 198 195 183 179 178 178 177 177 180 178 189 185 184 194 182 185 257 23 296 304 299 297 303 303
182 185 187 191 192 191 193 193 196 196 194 196 197 198 201 199 197 194 194 194 190 185 184 187 183 178 175 175 179 182 172 172 143 121 223 286 281 296 274 279 286 297 303
181 183 185 188 188 183 182 185 188 189 189 192 193 192 194 192 190 192 191 192 190 189 191 191 192 190 185 179 176 187 180 191 177 183 200 216 285 257 252 258 269 280 288
179 177 178 179 180 181 182 186 186 185 186 187 187 190 187 186 189 190 192 192 188 190 195 192 195 192 191 192 189 191 195 203 213 219 232 238 216 245 267 264 261 268 278
169 168 172 176 178 180 183 185 185 185 182 183 186 190 190 190 192 193 192 193 193 192 195 198 199 198 200 200 201 202 204 212 225 238 247 254 245 240 237 252 264 271 268
167 168 171 175 176 176 179 182 184 182 180 181 187 193 195 192 192 192 192 193 195 197 200 200 201 203 202 206 208 208 210 213 220 233 241 256 259 262 255 247 260 262 259
171 173 175 173 174 174 175 178 180 178 178 181 188 193 193 189 188 186 188 188 191 199 199 198 198 199 203 212 215 208 210 211 213 217 221 228 346 0 333 304 282 265 259
178 177 178 174 175 175 177 181 180 179 177 180 185 182 184 182 183 184 185 185 187 192 192 197 193 191 194 152 208 237 207 210 213 217 221 208 192 191 210 275 310 310 284
181 181 183 181 178 178 179 180 179 176 178 182 181 177 179 179 183 181 182 184 186 189 193 199 197 197 182 160 185 230 225 222 230 231 228 228 229 225 235 211 212 237 261
183 183 183 181 179 174 175 176 176 177 180 184 182 178 178 180 179 180 185 191 192 189 197 202 203 204 191 173 194 216 222 230 232 233 236 235 239 243 261 261 260 270 266
194 186 183 175 170 167 172 175 177 178 181 185 187 182 180 179 178 182 189 192 192 195 198 202 205 206 200 181 202 218 220 230 234 234 238 246 248 246 264 260 266 271 270
176 173 169 165 163 163 169 174 175 179 186 189 190 183 181 180 182 186 187 184 189 197 199 199 207 212 218 170 197 226 225 231 236 237 238 238 258 248 243 252 262 270 278
141 147 153 157 159 161 167 172 172 180 186 185 181 177 179 182 182 181 181 180 182 185 195 199 204 213 218 184 190 220 228 234 240 240 239 238 194 241 252 265 268 282 293
137 143 148 147 149 157 165 167 171 177 174 173 174 177 176 175 173 172 177 180 180 185 195 205 215 225 221 216 199 207 234 263 245 250 251 238 184 218 241 251 264 281 282
141 149 150 145 144 152 164 165 165 167 166 165 169 175 172 168 170 170 171 177 185 196 204 209 225 231 230 206 189 203 221 244 246 254 285 250 199 213 225 229 255 258 262
143 152 154 150 149 152 159 162 162 166 162 160 161 167 169 166 168 171 176 183 189 198 207 215 227 235 229 225 208 207 208 203 220 234 205 195 211 220 225 235 247 259 267
150 156 158 156 159 158 158 161 163 164 164 160 159 163 163 161 161 156 158 195 197 208 217 219 219 225 234 238 236 224 223 227 223 219 219 228 228 237 245 252 258 258 257
159 160 160 163 165 161 160 163 167 171 169 164 161 162 163 161 162 157 131 72 120 115 179 268 255 244 243 121 171 204 220 196 202 217 223 233 239 246 250 251 255 257 263
Height
1554 1556 1558 1560 1562 1564 1565 1567 1568 1568 1569 1570 1571 1571 1572 1572 1572 1572 1571 1571 1571 1571 1571 1571 1571 1570 1570 1570 1571 1570 1570 1570 1570 1571 1571 1570 1569 1569 1568 1567 1566 1565 1563
1552 1554 1557 1559 1561 1563 1564 1566 1567 1568 1569 1569 1571 1571 1572 1572 1572 1572 1572 1572 1572 1571 1572 1572 1572 1571 1571 1571 1571 1571 1571 1571 1571 1572 1571 1571 1572 1569 1568 1567 1566 1566 1564
1549 1552 1554 1556 1559 1561 1562 1564 1566 1567 1568 1569 1570 1571 1572 1572 1572 1572 1572 1572 1572 1572 1572 1572 1572 1572 1572 1572 1572 1571 1571 1572 1571 1571 1572 1571 1570 1571 1570 1568 1567 1566 1565
1546 1549 1552 1554 1556 1559 1561 1563 1564 1566 1567 1568 1569 1571 1571 1572 1572 1572 1572 1572 1572 1572 1572 1572 1572 1572 1572 1572 1572 1572 1572 1571 1572 1571 1571 1571 1571 1571 1570 1569 1568 1566 1565
1543 1546 1549 1552 1554 1556 1559 1561 1563 1565 1566 1567 1568 1570 1571 1572 1572 1572 1572 1572 1572 1572 1572 1572 1572 1572 1572 1572 1572 1572 1572 1571 1572 1571 1571 1570 1570 1570 1570 1569 1568 1567 1565
1541 1543 1546 1549 1552 1554 1556 1558 1561 1563 1564 1566 1567 1568 1570 1570 1571 1571 1572 1572 1572 1571 1571 1571 1571 1572 1572 1572 1572 1571 1571 1571 1571 1571 1571 1570 1570 1570 1569 1569 1568 1567 1566
1538 1541 1544 1546 1549 1551 1554 1556 1558 1560 1562 1564 1565 1567 1568 1569 1570 1570 1571 1571 1571 1571 1571 1571 1571 1571 1571 1571 1571 1571 1571 1570 1570 1570 1570 1570 1569 1569 1569 1568 1568 1567 1566
1535 1538 1541 1544 1546 1549 1551 1554 1556 1558 1560 1562 1564 1565 1566 1568 1569 1569 1570 1570 1571 1570 1570 1570 1570 1570 1570 1570 1570 1570 1570 1570 1570 1569 1569 1569 1568 1568 1568 1568 1567 1566 1566
1533 1536 1539 1542 1544 1547 1549 1552 1554 1556 1558 1560 1562 1563 1565 1566 1567 1567 1568 1569 1569 1569 1569 1569 1569 1569 1569 1569 1569 1570 1569 1569 1569 1569 1568 1568 1567 1567 1566 1566 1566 1567 1565
1531 1534 1537 1539 1542 1545 1547 1550 1552 1554 1555 1557 1559 1561 1563 1564 1565 1566 1566 1567 1568 1568 1568 1569 1569 1568 1568 1568 1568 1569 1568 1568 1568 1567 1567 1567 1567 1566 1565 1565 1565 1564 1565
1529 1532 1535 1537 1540 1543 1545 1547 1549 1552 1553 1555 1557 1559 1560 1562 1563 1564 1565 1565 1566 1566 1567 1567 1567 1567 1567 1567 1567 1567 1567 1568 1568 1567 1567 1566 1565 1565 1565 1564 1563 1563 1563
1528 1530 1532 1535 1538 1541 1543 1545 1547 1549 1551 1553 1555 1557 1558 1560 1561 1562 1563 1564 1564 1565 1566 1566 1566 1566 1566 1566 1566 1566 1566 1566 1566 1566 1566 1565 1564 1564 1563 1563 1562 1562 1561
1526 1528 1531 1533 1536 1538 1541 1543 1545 1547 1549 1551 1553 1555 1556 1557 1559 1560 1561 1562 1563 1563 1564 1564 1564 1564 1564 1564 1564 1565 1565 1565 1565 1564 1564 1564 1563 1562 1562 1561 1561 1560 1559
1525 1527 1529 1531 1534 1536 1539 1541 1543 1545 1547 1549 1551 1552 1554 1555 1557 1558 1559 1560 1560 1561 1562 1562 1562 1562 1562 1563 1563 1563 1563 1563 1563 1562 1562 1561 1561 1561 1560 1560 1559 1558 1557
1523 1525 1527 1530 1532 1535 1537 1539 1541 1543 1545 1547 1548 1550 1552 1553 1554 1555 1556 1557 1558 1559 1559 1560 1560 1560 1560 1561 1561 1561 1561 1561 1561 1560 1560 1559 1559 1558 1558 1557 1557 1556 1556
1522 1524 1526 1528 1530 1533 1535 1537 1539 1541 1543 1544 1546 1547 1549 1550 1551 1553 1554 1555 1555 1556 1557 1557 1558 1558 1558 1558 1558 1559 1559 1559 1559 1558 1558 1557 1556 1556 1555 1555 1554 1554 1553
1520 1522 1524 1526 1528 1531 1533 1535 1537 1539 1541 1542 1544 1545 1546 1547 1549 1550 1551 1552 1553 1553 1554 1555 1555 1555 1555 1556 1556 1556 1556 1556 1556 1556 1556 1555 1554 1554 1553 1553 1552 1551 1550
1518 1520 1522 1524 1527 1529 1531 1533 1535 1537 1538 1540 1541 1542 1544 1545 1546 1547 1548 1549 1550 1551 1551 1552 1552 1552 1552 1553 1553 1553 1554 1554 1553 1553 1553 1553 1552 1551 1551 1551 1550 1549 1548
1516 1518 1520 1523 1525 1526 1529 1531 1533 1535 1536 1537 1539 1540 1541 1543 1544 1545 1546 1547 1547 1548 1549 1549 1549 1549 1550 1550 1550 1550 1551 1551 1551 1550 1550 1550 1549 1549 1548 1548 1547 1546 1545
1514 1516 1518 1520 1522 1525 1527 1529 1531 1532 1533 1535 1536 1538 1539 1540 1541 1542 1543 1544 1545 1545 1546 1546 1546 1547 1547 1547 1547 1547 1548 1548 1548 1547 1547 1546 1546 1545 1544 1544 1543 1543 1542
1512 1514 1516 1518 1520 1523 1525 1527 1528 1530 1531 1533 1534 1535 1536 1537 1539 1540 1541 1541 1542 1543 1543 1543 1543 1543 1544 1544 1544 1544 1544 1544 1544 1544 1543 1543 1542 1542 1541 1540 1540 1539 1538
1511 1512 1514 1516 1518 1520 1523 1524 1526 1528 1529 1530 1531 1532 1534 1535 1536 1537 1538 1538 1539 1539 1540 1540 1540 1540 1540 1540 1540 1540 1540 1540 1540 1540 1540 1539 1538 1538 1537 1536 1535 1535 1534
1510 1511 1513 1515 1517 1519 1521 1523 1524 1526 1527 1528 1529 1530 1531 1532 1533 1534 1534 1535 1536 1536 1537 1537 1537 1537 1537 1537 1536 1536 1536 1536 1536 1536 1536 1535 1534 1534 1533 1532 1532 1531 1530
1509 1510 1512 1513 1515 1517 1519 1521 1522 1524 1525 1525 1526 1527 1528 1529 1530 1531 1531 1532 1532 1533 1533 1533 1534 1534 1533 1533 1533 1533 1533 1533 1532 1532 1531 1531 1530 1530 1529 1528 1527 1527 1526
1508 1509 1510 1512 1514 1515 1517 1519 1520 1521 1522 1524 1525 1525 1526 1527 1528 1528 1528 1529 1529 1530 1530 1530 1530 1530 1530 1530 1530 1529 1529 1529 1529 1528 1528 1527 1527 1526 1525 1524 1524 1523 1522
1506 1507 1509 1510 1512 1513 1515 1517 1518 1519 1521 1522 1523 1523 1524 1524 1525 1525 1526 1526 1527 1527 1527 1527 1527 1527 1527 1527 1526 1526 1526 1526 1525 1525 1524 1523 1523 1522 1521 1521 1520 1519 1518